Wind_Speed
6 8 9 7 5 2 3 1 1 1 1 1 1 2 2 6 2 4 5 4 4 3 6 10 12 11 10 9 9 10 8 3 4 4 3 8 25 26 18 19 20 18 17 15 14 14 13 13 13 12 12 12 13 12 12 13 13 14 15 15 14 15 14 15 17 16 17 18 18 18 18 19 19 18 19 18 17 19 20 22 21 20 20 20 21 21 20 20 22 22 19 18 19 19 18 18 16
7 6 5 4 2 2 0 0 0 2 1 2 0 2 3 4 3 5 5 3 3 6 10 11 12 12 13 12 10 14 12 6 10 7 6 21 29 22 22 24 22 20 19 17 15 14 14 14 13 12 13 12 12 12 13 13 14 14 14 14 14 15 13 14 16 17 16 17 18 18 17 18 19 19 18 18 17 18 20 21 19 18 19 19 21 21 20 20 21 22 21 18 18 18 18 18 17
7 2 2 4 2 1 1 1 1 2 2 2 0 1 4 0 6 5 6 7 7 9 11 11 11 10 12 14 11 13 7 7 16 10 8 24 21 19 27 25 23 22 20 19 15 16 16 15 14 13 12 12 12 13 13 13 13 14 13 13 13 14 14 14 15 16 16 16 17 17 17 17 18 18 18 18 17 17 19 19 18 18 18 18 20 20 20 20 20 21 21 20 18 18 17 17 18
5 3 2 3 1 1 1 1 1 1 1 1 0 2 2 3 6 6 6 8 8 8 10 10 8 8 15 16 10 12 9 7 15 12 10 19 20 25 29 25 25 22 21 19 16 17 17 15 14 13 13 12 13 13 13 13 13 14 13 13 13 13 13 13 14 15 15 16 17 18 18 18 18 18 17 18 17 17 17 17 18 18 18 18 18 19 19 21 20 20 21 20 18 18 18 17 18
3 3 4 2 0 1 1 1 1 1 0 1 1 1 6 5 6 8 7 8 8 8 9 9 7 9 13 12 7 7 9 9 13 15 13 19 27 30 28 26 25 22 22 19 18 18 17 16 15 14 14 13 13 13 13 13 13 14 14 12 12 13 13 13 15 15 15 15 16 17 18 18 18 18 17 17 18 18 17 17 18 17 17 17 17 19 19 20 20 20 20 20 19 17 18 17 17
4 1 3 3 1 0 1 1 1 0 0 2 2 5 7 5 7 9 9 9 8 8 9 10 11 12 10 8 7 8 11 13 13 15 19 26 30 28 27 27 23 22 21 19 19 19 18 16 15 14 14 13 13 13 12 13 13 14 14 11 12 12 12 12 15 16 15 15 15 17 17 18 18 17 17 17 18 18 17 17 17 17 17 16 18 20 19 19 18 19 20 19 18 17 18 17 17
4 1 2 1 1 0 0 0 1 1 1 2 3 6 5 6 7 10 10 8 8 10 12 12 13 12 10 8 8 13 17 17 16 19 26 30 29 26 28 26 22 22 20 19 20 19 17 15 15 14 13 14 13 14 13 13 13 14 13 11 12 12 12 12 14 16 15 15 15 16 16 16 17 17 17 17 18 17 17 16 16 17 17 17 18 19 19 19 17 17 18 18 17 16 17 17 16
4 3 0 1 0 1 1 1 1 2 2 4 3 5 4 8 6 8 9 8 8 10 14 13 13 13 12 11 8 15 23 22 24 28 30 30 27 27 27 26 23 21 20 20 20 18 16 14 14 14 14 14 14 15 14 15 14 14 13 12 12 12 13 12 13 14 14 15 15 15 15 15 16 16 17 17 17 17 17 16 16 17 17 17 17 17 17 18 17 15 16 17 16 16 17 17 16
4 3 1 1 0 1 2 1 1 1 2 5 5 5 3 7 6 7 9 9 9 10 15 13 11 14 14 13 10 13 22 27 31 32 30 29 27 27 25 24 23 22 22 20 19 18 16 14 14 15 15 14 14 15 15 15 15 14 13 13 13 13 13 13 13 14 14 15 15 15 15 16 16 16 16 16 17 17 17 16 17 17 16 16 16 17 17 16 15 15 15 16 15 15 16 16 15
3 2 0 1 0 1 2 0 1 0 1 5 6 6 2 6 5 6 8 10 12 13 17 14 12 16 15 13 10 11 22 32 33 30 28 28 26 25 24 22 23 23 22 21 19 18 17 15 15 16 15 15 14 14 15 15 15 14 13 13 13 13 14 13 14 14 14 15 15 15 16 16 16 16 16 17 17 17 16 17 17 17 16 15 15 16 16 15 15 15 15 15 14 15 15 15 15
2 1 1 1 0 1 2 1 1 1 1 3 6 7 2 3 2 6 8 11 14 16 18 14 13 16 16 11 8 15 28 32 30 30 28 27 25 25 24 22 23 22 22 22 20 19 18 16 16 16 16 15 15 15 15 14 15 14 13 13 13 14 14 14 14 15 14 15 15 16 17 16 16 16 16 17 18 18 17 17 17 17 16 14 14 15 15 15 15 16 15 14 14 14 13 14 15
1 1 1 1 1 1 1 1 0 1 3 4 4 4 2 3 1 4 8 14 17 16 15 11 12 13 14 10 7 19 27 27 28 30 28 27 26 25 24 22 21 21 21 21 20 20 19 18 17 16 16 16 15 15 15 14 14 13 13 13 13 14 14 15 15 15 15 15 15 16 17 17 17 17 17 17 18 18 17 17 17 16 15 14 16 17 17 16 15 15 14 13 13 13 13 14 15
1 3 1 0 1 0 1 1 1 2 3 4 2 4 2 4 2 3 9 16 16 14 14 12 14 12 13 10 8 15 20 25 30 30 29 27 26 25 24 22 22 21 20 20 20 20 20 20 18 16 16 16 16 15 15 14 14 14 14 14 13 14 14 14 14 15 16 16 16 17 19 18 17 18 17 17 18 18 17 17 16 15 14 14 16 18 17 16 16 14 12 13 13 13 13 13 14
3 2 2 1 1 0 1 2 1 3 1 7 3 5 2 5 3 2 6 14 15 13 16 16 15 13 12 10 8 9 14 28 35 32 28 26 26 25 23 23 22 21 20 20 19 19 19 19 18 17 17 17 16 15 15 14 14 14 14 14 14 14 14 14 14 14 15 16 16 17 20 19 18 18 17 17 18 17 17 16 15 15 14 14 16 17 16 16 15 13 12 13 12 13 12 13 15
4 1 2 1 1 1 2 3 3 4 2 8 1 4 3 5 4 1 1 8 14 13 16 16 13 11 11 11 9 9 18 29 35 35 30 27 26 24 24 23 22 22 21 20 19 18 19 19 18 18 17 17 16 16 15 14 14 14 14 15 14 15 15 15 14 14 15 16 16 17 18 19 19 18 17 17 18 18 16 16 15 15 14 15 17 16 15 14 13 11 12 12 12 12 12 14 17
3 2 2 1 2 1 2 2 3 4 3 6 1 6 6 5 6 5 4 4 14 14 14 13 10 10 12 11 13 19 25 28 32 37 33 28 25 23 23 22 22 22 20 20 20 19 18 18 18 17 17 16 16 16 16 15 14 14 15 15 15 15 15 16 16 15 15 16 17 18 18 18 19 18 17 17 16 17 16 16 16 16 15 15 16 15 14 12 11 12 12 12 12 12 14 16 17
2 3 1 1 1 1 2 2 3 2 2 5 8 13 6 3 4 5 3 4 13 15 13 12 12 13 15 16 21 28 28 26 30 35 32 27 24 22 21 21 21 19 18 20 20 20 18 18 18 17 16 16 16 16 16 16 15 16 16 16 16 15 16 16 16 17 17 18 18 18 18 19 19 19 19 18 16 16 16 16 15 15 14 13 13 14 13 12 12 12 12 12 12 12 15 16 16
2 2 0 1 1 1 1 1 1 1 1 6 12 10 6 4 5 4 1 5 10 12 13 14 15 16 19 25 28 29 28 26 27 29 27 25 21 19 19 20 19 17 18 19 19 20 19 18 18 17 17 17 16 16 16 16 16 17 17 17 16 16 17 17 16 17 17 17 18 18 20 20 20 20 20 20 18 17 16 15 14 13 12 11 11 13 13 12 13 13 12 13 12 13 14 14 14
2 2 2 0 1 1 1 1 2 2 0 2 8 5 5 6 4 2 4 8 9 11 14 16 17 18 21 26 27 27 27 25 24 24 22 23 21 19 18 19 19 18 20 19 19 20 18 18 18 18 18 18 16 16 17 16 17 17 18 18 17 15 16 17 17 15 15 17 18 19 20 19 20 20 20 20 19 17 16 15 15 13 11 11 12 13 13 13 13 13 13 12 12 13 13 13 12
1 1 1 2 2 0 1 3 3 4 2 3 6 9 3 4 3 2 6 9 9 11 14 17 19 20 20 20 24 26 24 23 23 21 19 20 21 21 19 20 20 20 21 21 21 20 18 17 17 18 18 17 17 17 18 17 17 17 17 18 16 15 15 17 17 16 16 18 19 20 20 19 20 19 19 19 19 17 15 14 13 12 12 12 13 13 13 13 12 11 11 10 10 10 10 11 10
1 2 2 2 3 1 1 3 4 6 5 5 2 5 7 3 2 2 8 8 7 10 14 20 21 20 20 18 20 23 22 22 22 20 19 18 18 20 21 21 22 23 22 22 21 20 18 16 17 18 17 17 18 18 18 17 17 17 16 16 16 15 16 18 18 18 17 18 18 19 19 19 19 19 18 17 17 16 15 14 13 13 14 14 14 12 11 10 9 8 8 8 7 6 6 6 5
2 2 4 2 2 2 2 2 3 5 6 5 5 4 6 6 3 3 8 6 5 12 17 20 21 19 19 18 19 19 20 20 19 19 19 19 17 19 22 22 23 23 22 22 22 21 18 16 17 18 17 17 18 18 17 16 16 16 16 16 16 15 17 19 19 18 18 18 18 18 19 18 18 18 17 17 16 15 15 15 15 15 15 14 12 9 8 6 6 5 5 6 4 2 2 2 3
2 2 3 2 2 2 3 3 3 3 7 5 5 7 6 7 4 5 5 4 10 18 19 19 19 20 21 20 18 17 16 16 18 19 20 20 19 21 25 22 22 22 21 22 22 19 18 17 17 18 18 18 17 17 16 16 16 15 15 16 16 15 17 20 19 18 19 19 18 17 17 17 17 17 17 16 15 14 14 14 14 13 12 11 9 7 5 5 4 3 2 3 3 2 3 3 5
3 1 3 4 2 1 1 3 3 1 6 4 2 6 8 6 5 5 2 6 19 21 18 19 19 21 21 18 15 15 15 16 19 21 21 20 21 26 27 22 22 22 21 22 20 19 18 16 16 17 18 18 17 17 16 16 16 15 15 16 16 15 17 19 19 19 20 20 18 17 16 15 16 16 17 16 14 13 11 10 10 10 10 9 9 6 4 4 2 1 1 1 2 4 5 7 10
2 3 2 4 3 1 1 3 3 1 2 1 1 2 8 7 6 5 4 10 22 20 18 19 18 19 17 15 16 15 14 16 20 21 21 20 23 28 26 23 23 24 23 22 20 18 18 16 14 16 17 17 17 17 16 16 17 16 16 16 16 15 16 18 19 20 21 20 18 16 15 15 15 15 15 15 14 12 10 10 10 9 9 9 9 6 3 1 1 1 1 2 3 4 4 7 11
1 4 3 3 4 2 1 1 3 0 1 0 2 5 7 8 6 5 7 14 21 19 19 18 16 17 14 14 15 14 13 15 19 20 21 21 23 26 25 24 24 27 26 23 20 17 17 16 15 16 16 16 17 16 16 17 18 17 17 16 15 16 17 19 20 20 20 19 17 15 14 14 14 15 15 14 13 12 12 11 9 8 7 8 7 6 3 1 2 1 0 2 4 5 6 8 9
5 6 4 5 5 2 2 1 3 2 1 2 1 4 5 7 4 4 9 17 20 18 19 17 16 15 14 14 13 13 14 16 19 21 22 20 21 23 24 24 25 28 26 22 19 16 16 17 17 17 15 15 16 17 17 19 19 18 19 16 15 17 18 19 20 19 19 17 16 14 13 13 14 15 15 14 14 14 13 11 9 8 6 5 4 4 4 3 2 1 1 2 2 3 6 9 9
9 8 7 7 4 2 3 3 3 2 2 4 4 1 2 4 4 5 12 17 18 18 18 16 15 13 13 14 11 10 12 16 20 21 20 20 20 22 23 24 25 26 24 22 20 18 15 16 17 17 15 15 16 18 20 20 20 19 19 17 17 18 19 19 18 16 16 14 13 13 14 13 13 13 14 14 14 14 12 11 10 8 6 5 4 4 4 4 3 2 2 1 2 3 4 6 7
9 8 8 5 3 4 4 4 2 2 2 5 5 0 0 1 4 6 13 16 17 17 17 15 14 12 12 12 10 8 10 15 17 17 18 22 23 23 24 25 25 24 23 23 22 20 15 13 14 15 16 16 17 19 21 21 21 19 19 18 19 20 19 18 16 14 13 12 11 12 13 12 12 13 12 13 13 12 11 10 9 7 6 6 5 4 3 4 3 2 2 2 2 2 2 4 4
7 6 5 4 3 3 4 4 3 3 3 5 4 2 2 3 6 8 11 15 18 16 14 14 12 12 11 9 8 8 10 13 14 16 18 21 24 25 26 25 24 23 24 24 23 21 17 13 11 13 16 17 17 18 20 20 19 19 18 17 18 19 18 16 15 14 13 12 12 13 13 12 13 12 10 11 11 11 10 9 7 6 5 5 6 7 5 4 2 1 1 1 2 5 5 4 4
5 5 2 2 2 1 3 3 3 2 2 4 3 3 3 4 5 9 12 14 16 15 13 13 11 11 10 8 9 8 9 12 16 19 18 19 25 28 28 26 25 24 25 24 23 23 21 17 12 12 14 16 16 17 19 19 18 19 17 16 17 17 17 15 15 15 14 13 13 14 13 12 12 10 9 10 11 11 10 8 7 6 5 5 6 5 4 3 2 3 3 4 5 6 5 3 2
1 4 2 1 1 2 2 3 1 1 2 4 3 3 2 2 1 4 10 15 15 14 12 13 12 12 10 8 9 8 8 13 20 21 18 18 25 29 30 27 26 26 24 24 24 24 23 21 17 15 15 16 16 16 18 19 18 19 17 16 17 17 16 14 14 16 16 15 13 12 13 12 10 9 9 10 11 10 9 7 6 6 5 3 4 4 3 2 2 3 3 4 5 5 4 1 3
4 2 4 2 2 3 1 2 1 3 2 4 3 3 1 1 4 9 8 15 14 12 12 14 14 12 11 8 9 8 7 10 16 18 18 20 26 29 30 27 27 27 24 24 25 24 24 22 20 19 19 19 18 19 19 19 19 19 17 17 18 17 16 15 13 14 16 17 14 13 14 13 9 8 8 8 8 8 8 7 6 6 5 4 3 3 1 1 3 3 3 2 3 3 3 3 1
2 1 3 3 3 6 3 1 1 1 1 2 3 2 1 3 8 9 8 14 13 12 12 14 13 11 9 8 9 9 7 8 10 15 18 22 26 27 27 27 28 27 25 25 25 24 24 23 22 21 20 19 19 20 19 19 19 18 16 17 19 18 16 16 14 13 15 16 15 15 15 14 10 9 9 8 8 8 8 7 6 5 5 5 3 2 1 1 3 2 1 1 1 3 3 5 4
4 2 2 3 4 6 5 3 5 5 3 1 1 1 1 3 5 6 9 11 11 11 11 12 12 11 9 8 10 8 8 9 10 15 19 24 27 25 25 28 29 27 24 24 24 24 25 24 24 23 20 20 19 19 19 18 18 17 16 16 17 17 17 17 15 15 15 13 15 17 16 14 12 10 9 8 8 8 8 8 6 4 5 5 3 2 3 3 3 2 1 1 0 2 3 4 6
5 4 3 5 4 3 4 3 5 7 4 3 4 3 2 5 6 6 10 9 8 10 9 10 11 10 9 8 10 9 8 9 12 18 21 24 27 24 26 28 28 26 24 24 24 24 25 26 26 23 21 21 20 19 19 18 17 16 16 14 13 15 18 17 16 16 14 11 13 15 15 14 13 12 10 7 7 8 9 9 7 5 5 4 4 4 4 4 2 2 1 1 2 3 4 4 5
5 4 4 6 5 2 3 3 4 4 3 3 4 3 4 7 5 5 8 9 7 9 8 9 11 10 8 9 11 9 7 10 15 20 22 24 26 25 26 26 26 26 25 25 24 23 25 27 26 24 22 22 21 21 20 18 18 18 16 13 13 15 17 17 16 16 14 11 12 14 13 13 12 12 10 8 9 10 9 9 7 6 5 5 6 6 5 3 1 2 1 2 4 6 7 6 3
7 4 5 5 4 3 2 4 8 4 1 3 3 4 5 5 2 4 3 9 9 9 9 9 12 11 8 10 12 9 6 11 13 17 21 23 24 25 25 25 27 27 26 27 25 23 25 26 25 24 23 22 21 21 20 19 18 17 16 14 15 16 16 17 17 15 14 12 11 13 13 12 11 10 11 11 10 10 9 9 9 6 5 7 7 6 4 2 2 2 1 2 4 7 8 6 3
7 4 5 4 4 4 2 3 9 4 1 4 2 4 5 3 2 5 3 3 4 5 5 7 12 11 8 11 12 9 8 11 10 13 19 22 24 25 25 25 27 26 26 28 26 23 24 24 24 24 22 21 21 20 19 18 17 16 15 14 16 16 15 16 17 15 14 13 12 12 12 12 12 11 11 12 10 10 10 9 8 6 5 7 7 5 3 3 3 3 2 3 5 6 7 5 3
6 5 4 5 6 5 1 2 7 3 1 4 3 1 1 2 2 2 3 2 1 1 2 2 10 10 8 12 11 8 10 11 10 12 16 20 23 24 25 25 25 25 25 27 26 24 24 23 23 23 22 20 19 19 18 18 16 15 15 15 15 16 16 15 16 15 14 14 13 12 11 12 13 11 11 11 10 10 10 9 7 6 6 6 6 6 4 2 3 3 4 4 5 7 10 7 2
7 8 5 7 9 6 5 6 6 3 2 4 5 2 1 2 0 1 2 3 2 2 4 2 7 9 8 11 11 9 11 10 10 12 13 17 20 22 25 25 24 23 24 26 26 24 24 25 24 23 21 20 19 18 18 18 16 16 17 16 15 16 17 16 17 15 14 14 14 13 12 12 12 11 11 10 9 10 10 9 7 6 6 5 5 5 4 2 2 3 4 5 6 7 12 10 2
6 9 9 12 12 8 12 12 7 4 1 4 6 3 3 2 1 3 2 3 2 2 3 2 4 7 8 10 10 10 11 10 9 11 13 16 19 23 26 25 23 22 23 25 25 23 25 26 24 23 21 20 19 18 18 18 16 17 19 18 18 20 18 19 19 18 17 16 15 14 13 14 13 11 11 10 9 10 10 9 7 5 5 4 4 4 4 2 2 2 3 4 5 7 11 13 8
4 10 15 14 13 12 15 13 6 3 3 4 4 3 2 1 2 4 1 2 2 2 1 2 3 4 7 8 9 10 11 10 9 10 13 16 19 22 25 26 24 23 24 24 23 23 26 27 25 24 22 20 20 17 17 18 17 18 19 19 21 22 20 20 21 19 19 16 14 14 14 15 13 12 11 10 9 10 10 10 8 5 4 4 4 4 2 1 1 1 2 3 4 7 9 11 11
2 10 18 16 13 14 13 10 3 2 4 4 2 1 2 2 4 4 3 2 2 4 4 3 3 4 5 8 9 10 11 10 9 9 11 15 19 22 25 26 25 25 25 24 23 24 26 27 26 25 23 21 20 18 17 18 18 19 19 18 19 19 19 19 19 19 18 16 16 15 14 14 14 13 12 10 10 10 10 11 9 7 6 3 3 3 2 2 3 2 2 3 3 6 7 8 10
4 11 16 13 13 12 10 6 2 2 4 4 4 2 2 2 2 3 4 3 5 6 6 6 4 5 6 9 9 10 12 11 10 10 10 15 20 22 24 25 26 28 27 25 25 26 27 27 26 25 24 23 22 19 19 19 18 18 17 17 17 16 16 16 17 19 16 16 18 16 15 15 14 13 13 11 10 9 10 11 10 9 8 6 5 4 3 4 4 3 0 1 3 4 4 6 8
9 15 15 12 12 10 8 5 3 2 1 3 8 7 2 2 3 3 4 5 8 7 6 6 6 6 7 8 8 9 10 10 10 11 12 16 21 23 23 24 26 29 28 26 26 27 27 27 26 25 23 24 23 21 21 20 19 19 16 16 17 16 17 16 16 18 15 15 18 17 15 16 13 12 13 12 11 9 9 11 11 10 8 7 7 4 4 5 5 3 1 1 2 2 2 5 6
13 16 14 11 9 6 5 3 3 3 2 3 9 10 4 1 4 6 4 4 7 7 6 6 6 8 9 9 9 9 10 9 10 11 13 18 23 24 24 24 25 29 30 28 27 27 28 27 26 25 23 25 25 22 22 21 21 20 16 15 17 17 18 18 17 17 15 16 19 17 16 16 14 13 12 12 11 10 10 10 10 9 7 8 7 5 5 5 5 4 1 1 1 1 1 2 4
11 11 10 9 5 2 4 3 3 1 3 1 6 10 5 2 3 5 5 6 8 9 8 10 9 9 9 9 10 10 11 10 9 10 12 16 19 21 24 23 23 29 31 28 28 27 27 27 27 25 24 24 25 23 22 21 21 20 17 15 17 17 19 20 18 18 17 17 19 17 16 15 14 13 12 13 12 11 10 10 10 8 7 7 6 6 6 4 5 6 4 2 2 2 1 2 3
5 8 8 7 3 1 3 2 1 1 2 3 2 7 4 3 2 4 7 9 10 10 9 10 11 10 10 10 10 9 10 10 9 10 11 12 13 16 21 21 22 29 31 28 28 27 27 27 27 26 24 24 25 23 21 21 21 20 18 17 17 17 18 19 19 19 19 18 18 18 17 16 15 14 14 13 12 12 11 11 11 9 8 7 6 6 6 5 5 7 5 4 4 2 1 2 3
6 7 6 4 4 2 2 2 1 1 0 3 2 6 3 3 2 5 10 11 10 10 9 9 10 11 10 10 10 9 9 10 8 9 11 11 14 17 19 20 23 28 30 30 28 27 27 26 27 27 25 25 25 23 22 21 20 19 19 17 17 18 17 17 19 19 19 19 17 17 17 17 16 14 14 13 11 12 12 11 11 9 10 9 7 6 6 5 5 6 5 5 4 3 3 2 2
9 8 6 5 5 4 3 3 2 2 1 2 2 4 2 1 1 3 8 10 8 8 6 3 2 3 3 5 7 10 11 9 7 8 11 12 17 22 20 19 24 27 29 30 29 28 27 26 27 27 26 26 25 23 23 22 20 20 20 19 18 17 16 16 18 17 17 19 17 15 16 17 16 14 14 13 11 12 13 12 11 10 10 10 8 8 7 5 5 6 6 5 3 4 4 3 2
5 5 6 5 4 5 4 3 4 3 2 2 1 2 2 1 1 3 2 6 9 7 3 5 5 2 4 7 6 8 11 11 8 9 10 12 19 23 21 21 24 26 28 30 30 29 29 27 28 27 27 27 25 24 24 22 21 20 20 21 19 18 16 15 17 16 15 17 17 15 15 15 15 14 13 13 12 13 13 11 12 11 11 11 10 11 8 6 6 7 6 5 4 3 3 3 4
1 1 2 5 7 8 5 2 4 4 2 1 1 2 1 0 2 2 1 6 9 8 5 6 5 5 7 9 7 7 11 11 9 10 10 12 17 21 21 22 24 25 25 28 31 31 30 29 28 27 27 27 26 24 24 23 22 20 20 21 20 19 17 16 16 16 14 15 15 14 14 13 13 13 13 14 12 12 12 11 12 12 11 11 11 11 10 7 7 7 7 6 5 5 5 5 5
1 0 1 4 7 6 4 3 3 2 1 1 2 3 2 2 1 2 4 7 9 10 9 8 9 9 9 9 6 5 10 11 9 10 11 13 17 19 21 24 25 26 25 28 31 31 31 31 29 27 27 27 26 25 25 23 22 21 20 21 20 20 19 17 16 16 16 16 14 14 14 13 14 14 14 15 13 13 13 12 12 12 12 11 10 10 11 10 8 8 9 8 6 6 7 6 6
2 2 2 3 4 2 2 3 3 3 0 1 2 2 3 4 3 5 9 10 10 11 10 10 11 12 11 10 5 4 8 11 9 10 10 11 16 20 22 24 26 26 26 30 32 30 31 31 29 28 27 27 27 25 25 24 22 21 21 21 20 19 19 17 16 16 16 16 15 15 15 14 14 14 13 14 14 14 15 13 12 12 12 11 10 9 9 10 10 9 9 9 7 7 8 7 7
3 3 2 3 4 4 3 2 3 4 2 1 0 1 3 4 4 8 11 12 12 11 11 11 13 14 12 9 4 3 4 8 9 9 9 10 16 20 23 26 27 26 27 31 32 28 30 30 28 28 26 25 26 25 25 25 22 21 21 21 20 19 18 17 16 17 16 16 15 14 15 14 14 14 14 14 14 15 15 14 13 13 12 11 11 11 10 10 10 10 10 9 7 7 8 8 7
2 2 2 1 2 4 4 2 2 4 4 3 2 0 3 3 4 7 10 11 12 12 11 10 10 13 11 8 5 3 5 7 9 10 8 11 16 20 23 26 28 27 27 31 30 28 29 29 28 28 26 25 26 25 25 26 24 21 20 21 20 19 18 16 16 17 16 16 15 14 14 13 13 14 15 14 14 14 14 14 14 14 13 12 12 13 11 11 11 11 11 10 8 8 9 10 8
6 3 3 4 2 4 3 0 2 3 3 4 4 2 2 1 2 5 6 9 11 11 11 10 9 12 11 7 7 5 5 7 8 11 10 10 16 19 21 25 28 28 27 29 29 29 29 28 27 28 27 26 27 26 26 26 24 22 21 21 20 20 19 17 16 16 15 16 16 14 14 14 13 14 14 15 15 15 13 13 13 14 13 13 13 12 12 13 12 11 10 10 10 10 10 11 10
Wind_Direction
158 140 146 142 135 192 233 219 312 352 96 72 56 68 232 224 208 80 72 50 50 53 61 74 99 114 114 110 112 76 39 130 136 121 127 139 151 155 147 154 159 150 156 153 144 135 126 125 122 126 127 122 117 113 114 113 110 109 111 113 112 111 111 109 106 107 114 116 110 109 112 113 112 112 112 116 123 126 126 126 125 121 120 118 116 115 112 111 110 109 105 102 103 103 103 103 101
157 136 138 150 185 210 263 21 84 346 62 68 86 152 242 221 118 110 125 108 80 86 87 91 92 90 97 100 95 71 36 33 91 87 96 132 146 153 150 156 156 155 158 147 142 137 134 134 131 131 125 125 123 118 117 114 113 111 112 115 116 115 113 112 112 114 120 120 117 115 116 116 115 115 115 118 122 127 130 129 126 120 121 119 118 119 116 112 110 111 109 105 105 106 104 104 103
164 163 184 179 223 188 135 18 94 354 32 62 274 304 328 141 134 144 149 131 116 112 108 105 92 86 87 77 67 79 65 38 87 89 105 134 146 157 156 156 156 158 153 144 146 147 145 142 137 133 128 130 126 120 118 117 119 117 117 119 120 118 113 111 112 115 121 124 123 119 117 118 118 117 116 118 121 129 132 129 125 121 121 118 117 118 115 112 111 113 113 111 111 109 107 106 105
175 314 313 163 220 16 45 18 83 23 41 36 327 63 324 226 144 130 134 124 116 112 104 98 86 88 90 91 92 90 91 66 93 105 124 145 151 155 156 154 155 153 146 145 149 149 146 141 138 135 132 129 124 123 122 123 124 122 120 116 117 117 112 113 114 116 123 129 127 123 121 120 119 118 118 120 122 128 132 129 125 121 120 118 116 115 113 112 112 115 115 115 115 113 112 109 107
176 333 360 69 24 26 51 27 51 30 85 103 52 215 223 207 130 123 115 102 98 94 99 103 98 100 95 98 109 97 109 104 107 117 128 147 150 152 153 150 150 145 144 148 148 144 139 140 137 136 134 128 125 125 122 120 122 119 115 114 116 116 117 121 121 121 125 130 130 125 122 120 120 121 123 123 125 127 130 131 127 122 120 116 114 115 112 112 112 112 114 116 117 116 116 111 108
163 330 16 47 347 79 116 36 45 251 305 128 129 253 222 169 123 119 103 95 92 95 101 97 98 102 92 85 94 109 128 123 123 128 131 143 148 148 147 145 142 139 143 147 144 137 137 142 139 138 134 128 127 124 122 120 121 119 115 117 119 117 121 125 124 125 126 129 131 126 121 122 123 124 125 125 126 128 130 130 126 122 119 114 115 117 113 111 110 109 113 117 118 118 118 113 111
137 102 22 24 268 98 123 109 198 182 278 195 175 237 200 131 119 112 109 105 86 89 99 101 110 106 95 103 103 107 119 123 126 131 135 141 143 143 144 140 133 134 139 142 138 135 137 139 136 134 130 126 125 122 119 117 120 121 121 122 122 121 122 124 125 126 128 128 130 128 126 125 125 125 124 126 127 128 127 125 124 121 118 116 117 118 115 112 110 110 115 119 121 122 121 116 114
104 68 324 319 263 28 272 242 221 156 165 242 226 239 186 125 123 118 124 121 105 107 107 109 114 103 96 103 104 111 117 118 122 130 136 137 136 137 140 135 130 132 137 138 134 134 134 132 129 124 122 122 119 117 113 113 118 122 125 125 124 123 124 127 126 126 128 127 127 130 131 128 126 125 124 126 127 126 125 124 123 120 119 119 118 116 115 113 112 115 118 121 125 127 125 119 116
81 39 234 342 356 350 279 282 277 126 123 248 253 257 210 128 129 130 136 131 125 119 108 108 108 102 102 102 104 113 117 119 122 128 133 133 132 132 134 135 135 135 135 135 132 132 127 126 126 121 121 120 117 115 114 115 118 122 123 124 125 126 129 130 127 127 128 127 128 129 132 131 128 126 125 126 126 126 126 126 124 120 119 118 117 116 115 113 115 119 121 124 128 129 128 123 119
55 20 5 356 4 319 282 5 25 356 178 252 271 266 226 120 140 141 140 134 126 114 105 103 101 103 107 106 105 113 122 126 125 125 130 133 133 131 130 134 137 135 132 131 128 125 122 122 121 121 121 119 119 116 116 117 119 122 122 125 128 130 130 129 128 127 125 127 130 132 133 134 129 127 126 125 124 124 124 123 121 121 121 119 119 119 118 118 119 122 122 124 127 129 130 127 123
28 50 67 336 276 286 288 32 41 301 293 288 287 263 191 115 181 146 135 121 112 107 107 106 105 107 109 104 104 123 127 128 127 127 131 132 132 130 127 130 134 134 131 127 122 120 121 120 118 118 119 118 118 116 118 119 122 125 126 129 129 132 130 129 129 126 126 128 133 136 134 131 128 127 125 123 123 122 121 121 122 123 124 124 123 119 118 120 120 122 123 124 126 128 129 127 124
77 137 79 292 259 279 272 32 72 23 351 319 284 281 111 115 260 144 128 110 110 114 119 120 117 116 110 106 116 126 125 125 127 127 128 128 128 128 127 128 128 129 128 123 119 120 120 120 119 119 119 119 119 120 122 122 124 125 128 129 127 130 129 129 130 127 129 130 134 137 132 130 130 128 123 120 121 122 121 123 126 128 126 123 122 118 118 120 121 122 123 124 123 124 125 124 126
148 156 121 219 246 315 242 92 73 89 16 292 255 304 42 98 258 168 125 119 127 129 123 121 124 123 112 115 126 124 127 132 132 129 128 127 127 128 128 126 124 123 122 118 116 118 120 121 121 120 120 119 120 122 124 125 124 124 124 124 126 127 126 128 129 128 131 132 136 137 134 134 133 129 124 121 121 122 123 125 129 129 124 122 121 121 122 124 126 126 123 123 121 121 121 123 126
148 162 135 157 233 247 244 108 151 125 97 265 243 280 300 90 260 241 121 132 133 128 123 127 131 120 115 127 130 128 141 139 136 133 128 127 129 128 127 125 123 121 120 119 117 117 118 120 121 121 120 120 122 122 123 124 122 122 121 121 124 123 122 125 126 130 132 134 136 137 137 134 130 127 125 124 123 123 126 128 128 126 123 124 127 127 127 127 127 125 123 123 121 119 118 121 123
144 161 115 92 242 200 234 122 168 144 184 251 252 296 278 122 192 248 178 133 120 126 125 132 137 123 135 144 135 141 145 138 135 133 128 126 128 127 125 123 122 122 122 122 122 121 120 122 123 121 121 122 124 123 121 120 119 118 117 119 120 120 121 122 126 128 128 130 132 134 134 130 127 126 124 124 125 126 129 129 126 126 127 129 131 130 130 129 122 118 122 121 120 118 119 123 124
150 124 79 26 252 198 223 123 146 144 213 240 204 249 237 153 175 170 220 141 122 137 130 141 149 133 141 137 133 141 142 138 133 132 128 125 126 124 123 121 122 121 121 125 127 128 127 127 125 122 121 123 125 124 122 120 118 116 115 118 119 120 120 121 125 127 127 130 132 132 130 128 126 125 125 125 127 128 128 126 125 129 130 130 130 129 131 130 118 116 120 118 117 117 120 125 125
125 93 45 329 255 215 210 164 144 142 213 216 219 225 206 142 169 158 210 141 134 140 134 145 141 131 133 132 139 139 138 139 132 129 127 125 126 123 121 121 120 118 123 130 133 134 132 130 128 125 125 125 126 125 124 122 119 119 117 118 121 122 119 120 125 128 131 130 131 132 132 131 128 128 128 127 128 126 122 122 124 128 129 128 127 129 131 127 119 118 117 117 117 118 123 126 125
114 88 129 332 291 234 191 166 127 103 194 209 224 215 158 146 158 145 140 125 132 128 129 135 127 124 125 133 139 134 136 138 131 129 130 129 129 127 125 124 120 123 129 131 134 136 133 132 132 131 131 129 126 124 124 124 122 123 122 120 121 121 119 118 120 125 131 132 135 137 134 133 132 131 130 129 127 123 121 121 124 129 129 128 128 129 128 124 119 116 115 117 120 123 128 129 126
113 112 131 136 217 219 164 135 133 155 215 287 281 277 149 157 146 127 118 130 133 122 129 128 119 117 122 133 135 134 140 136 130 132 133 134 136 135 130 126 125 133 136 136 138 137 134 135 135 135 135 131 128 127 125 125 124 125 124 123 122 121 122 122 122 126 133 138 141 139 133 131 131 130 129 129 126 123 123 124 127 131 132 129 127 126 124 124 122 119 119 120 122 126 128 130 128
41 94 140 219 163 151 185 181 167 159 118 54 319 318 324 156 134 141 130 140 150 135 135 127 122 126 131 135 134 140 140 132 135 139 138 138 139 139 135 130 132 140 142 142 142 138 136 136 135 138 139 137 137 134 130 128 126 127 129 128 127 126 129 131 129 131 136 140 141 138 133 130 130 128 127 127 126 126 127 127 129 131 130 126 123 122 120 121 122 123 125 126 129 132 134 132 130
241 140 197 211 141 110 182 206 176 156 140 128 170 332 320 219 130 141 143 153 162 139 133 129 131 136 136 136 140 143 136 136 145 147 143 139 141 139 136 134 136 143 142 142 143 138 135 139 142 144 145 144 143 138 133 131 128 131 135 133 131 131 137 138 134 134 138 139 139 137 133 132 131 128 127 127 127 130 132 132 128 126 125 123 121 117 115 113 113 121 126 131 136 145 153 149 143
156 192 221 197 131 136 135 199 190 160 135 134 142 87 288 238 143 168 159 171 161 128 129 132 134 136 137 139 143 141 139 146 151 149 144 143 147 135 129 131 133 141 144 145 145 138 139 150 151 148 148 145 141 138 136 136 136 137 137 138 136 136 141 141 138 136 138 140 139 138 136 136 134 130 127 125 125 126 129 129 126 126 124 123 120 115 116 108 101 111 126 139 142 167 179 190 190
149 212 201 87 24 89 120 166 204 178 128 153 156 130 242 245 154 180 181 165 126 123 129 131 132 136 139 140 142 143 147 153 151 150 148 149 148 129 126 131 132 140 145 146 145 141 148 158 156 152 151 146 142 142 142 143 144 140 137 141 142 141 142 142 141 139 140 143 142 140 139 139 136 131 128 126 123 121 122 125 126 128 127 123 117 111 111 97 89 95 133 158 154 138 101 97 150
200 85 102 89 37 26 105 154 166 167 135 168 136 136 218 219 154 163 200 139 121 123 130 128 133 136 139 143 143 145 154 153 148 151 151 150 141 131 133 134 135 142 145 149 149 148 153 158 156 155 153 149 148 149 149 148 147 143 138 137 138 139 144 145 143 142 145 146 142 138 136 136 136 133 130 129 126 123 126 134 135 132 130 125 119 118 108 83 69 36 273 230 182 142 111 117 143
190 77 111 131 135 124 75 119 108 144 168 159 45 224 221 195 162 163 191 136 122 126 129 129 137 137 142 148 143 150 158 151 150 152 148 145 138 134 138 135 138 143 146 152 152 151 156 158 156 154 153 152 152 152 152 153 150 146 142 138 132 135 145 147 144 143 146 146 141 137 137 138 138 136 135 132 130 132 139 142 136 133 133 129 125 128 125 86 66 77 291 267 206 174 148 141 155
130 130 170 126 102 56 17 106 71 36 233 339 224 215 200 184 170 173 175 131 123 129 130 135 140 140 151 148 148 158 154 152 156 149 139 143 140 134 136 137 141 144 146 152 150 153 159 158 160 158 154 153 153 151 153 157 155 149 147 143 132 133 143 146 144 143 146 148 144 143 146 144 140 141 139 136 137 139 142 139 133 134 133 130 127 125 134 137 84 79 156 172 181 200 206 190 181
133 140 134 89 83 46 336 63 61 346 315 11 287 174 176 189 167 158 156 127 124 132 133 142 143 146 155 147 153 157 151 159 155 141 139 145 139 134 137 139 143 144 146 149 150 157 161 161 164 163 155 150 152 151 150 154 154 152 150 147 140 140 144 146 145 145 149 150 148 151 154 149 143 144 142 141 144 144 145 145 146 153 153 144 130 112 114 115 75 40 157 162 219 234 219 207 190
136 131 100 78 83 79 18 48 65 345 339 357 341 147 172 194 171 156 140 126 130 136 138 148 148 150 151 148 154 152 155 159 147 142 144 142 139 141 140 138 141 144 147 149 153 158 166 172 164 158 151 143 148 149 148 149 150 150 150 149 148 148 146 144 143 147 154 154 151 155 154 149 144 146 147 150 152 148 149 151 151 155 149 135 125 110 101 111 108 119 144 237 230 168 181 184 177
139 128 103 100 101 82 40 15 20 14 355 340 339 95 135 173 174 153 131 131 137 138 145 152 150 147 146 151 152 149 153 145 139 141 140 139 144 142 137 140 143 144 148 149 153 156 168 182 160 147 147 142 144 145 144 145 146 146 147 150 152 152 151 145 143 152 158 154 152 155 154 148 146 150 153 157 157 150 147 145 143 140 126 114 125 141 143 147 133 85 103 132 158 155 207 206 208
136 121 109 121 96 70 50 360 348 24 6 338 348 129 209 212 167 152 139 140 141 143 153 153 146 142 146 155 145 145 146 138 137 137 141 143 141 136 135 142 145 145 148 148 151 153 162 180 160 142 145 144 142 142 143 143 145 146 147 150 152 155 153 144 147 157 158 151 146 149 152 150 147 149 152 157 157 150 144 137 129 125 130 136 146 148 149 154 168 255 218 223 272 310 296 260 244
132 119 109 103 86 99 64 355 342 42 28 337 343 134 203 226 163 158 153 147 145 149 156 149 143 141 148 153 140 143 145 140 135 138 153 146 133 135 137 143 146 146 149 149 152 153 157 168 163 148 145 145 147 148 147 148 152 156 155 152 149 153 152 146 152 158 156 149 140 138 142 144 142 141 144 150 151 147 141 131 124 126 132 142 146 142 138 135 159 230 241 265 276 292 293 273 194
199 140 120 41 83 93 20 318 305 23 38 344 341 141 202 292 281 228 164 150 151 154 154 146 142 145 151 151 140 144 148 140 133 143 164 147 132 137 139 142 147 149 151 152 154 154 155 160 161 160 159 158 161 159 153 153 158 160 162 159 150 148 151 155 158 158 155 147 140 140 139 141 143 142 142 143 143 143 139 134 137 140 137 138 140 138 139 148 200 235 244 259 282 299 318 342 142
259 181 133 165 147 122 318 304 346 354 22 349 346 146 223 157 202 256 192 153 156 157 153 146 145 149 155 152 142 146 155 142 135 155 168 143 133 138 141 144 147 150 154 154 155 156 156 157 159 163 163 163 164 162 157 156 159 158 159 162 158 153 155 161 157 151 151 146 146 151 148 147 150 151 150 144 140 140 143 151 155 148 151 169 164 155 123 120 194 219 242 247 317 326 346 350 284
274 318 112 157 152 147 166 99 112 345 88 328 330 140 244 172 191 238 197 158 159 162 155 149 148 150 157 149 143 154 162 147 143 165 163 136 131 137 141 145 147 152 155 156 158 157 156 156 159 161 160 161 161 160 159 156 156 156 155 160 163 160 157 160 156 150 150 150 153 156 155 153 153 156 156 157 158 153 152 158 156 143 158 177 181 181 122 91 161 175 220 198 341 319 336 360 350
185 197 102 129 150 160 170 151 153 164 153 163 233 174 247 208 217 235 192 168 161 164 156 149 147 148 160 148 145 166 164 149 155 163 150 132 133 138 140 142 146 152 154 155 157 155 155 155 157 158 157 159 157 155 156 155 154 155 157 161 165 165 160 159 159 157 155 158 158 157 160 159 155 156 153 155 164 165 165 164 156 151 168 173 160 148 127 110 144 144 120 166 315 319 342 358 344
155 143 120 137 142 156 166 138 145 158 152 143 165 188 212 202 233 235 188 169 160 167 158 149 146 148 164 150 146 172 165 149 157 155 141 133 138 140 139 140 145 152 153 153 154 155 155 153 154 156 157 157 154 152 154 155 158 158 162 167 164 160 159 160 161 161 161 166 164 160 162 163 161 160 153 150 157 161 170 170 160 160 167 159 150 142 126 114 119 114 109 25 331 327 350 345 328
118 116 126 133 120 128 149 125 148 171 147 148 167 175 202 201 234 253 180 162 165 173 164 151 148 156 170 150 150 174 167 148 151 149 140 136 140 139 140 142 144 148 152 153 152 151 150 149 152 155 159 159 156 156 156 156 161 161 165 170 161 153 154 157 156 158 165 173 172 164 161 163 164 162 156 150 151 156 167 168 157 160 156 141 140 136 123 116 94 85 92 339 329 329 349 7 6
134 138 127 114 108 131 143 144 163 193 139 147 167 160 198 215 266 326 167 170 180 174 170 160 149 161 171 145 154 178 160 145 149 145 141 139 140 141 141 143 142 143 151 155 152 148 147 149 153 156 160 161 160 158 157 158 164 165 167 168 164 160 159 158 154 157 166 172 172 166 163 164 163 162 162 156 152 156 167 166 158 163 159 138 130 123 112 97 99 101 59 340 337 335 345 10 41
140 138 129 121 122 109 53 146 157 182 206 156 192 169 183 236 334 357 21 166 192 167 173 171 153 161 168 148 159 175 149 149 156 144 143 144 143 142 140 142 145 145 149 155 154 151 151 152 155 159 161 163 163 162 161 162 166 169 168 166 167 168 167 166 160 158 165 170 169 165 166 167 164 164 163 160 158 160 165 163 157 161 164 152 137 129 119 91 95 95 48 3 357 356 3 21 61
150 147 143 138 153 144 98 181 158 175 254 143 165 166 185 302 354 359 14 43 346 11 349 197 162 164 166 154 159 164 151 158 162 147 146 148 145 142 141 144 149 150 149 153 156 156 158 159 158 161 163 164 168 169 167 166 167 171 172 169 167 165 165 164 162 160 168 173 167 166 173 171 168 168 162 158 161 163 163 160 160 163 158 153 143 139 134 98 82 64 46 24 15 16 16 19 110
166 164 160 145 163 160 121 142 152 133 44 117 127 95 266 263 309 297 341 32 24 30 14 325 181 172 161 155 159 158 156 163 162 152 150 150 146 142 146 149 150 151 151 155 159 160 162 163 163 165 166 168 172 172 171 171 168 164 165 168 164 160 160 162 164 162 169 172 167 173 179 167 163 163 159 161 167 166 164 164 166 167 154 144 137 136 139 136 91 55 36 28 29 23 17 22 70
182 176 162 154 158 128 114 133 143 126 140 166 146 148 217 226 228 254 309 31 16 27 35 315 216 180 160 156 160 156 156 163 163 156 151 150 147 142 147 152 153 154 155 158 162 163 164 164 166 168 169 172 174 174 177 178 173 161 159 159 156 155 159 165 169 165 169 174 173 179 176 159 160 164 163 174 181 168 160 161 158 152 149 142 137 135 136 147 122 56 27 28 33 31 26 30 40
198 170 150 147 141 124 130 145 150 136 162 175 158 162 192 230 234 230 242 54 317 301 210 278 285 207 169 160 162 159 159 163 162 159 152 150 148 144 148 156 159 159 161 162 162 165 167 166 167 170 170 172 172 174 178 178 175 167 164 161 157 157 161 168 172 169 173 179 176 176 170 160 165 171 172 181 182 167 155 155 152 150 151 142 144 138 115 129 145 63 33 41 39 43 35 25 31
181 138 135 136 132 133 139 140 132 104 121 134 163 139 123 216 224 201 148 118 268 257 224 240 281 258 197 170 168 164 163 163 163 162 155 151 150 149 154 160 162 161 162 164 164 168 170 168 170 170 169 171 174 173 174 175 171 164 163 165 163 163 165 171 174 171 177 183 176 172 170 166 169 175 179 178 175 175 169 163 159 164 168 156 158 156 136 136 129 106 53 54 51 50 35 16 27
109 112 118 123 121 122 119 105 58 69 113 149 197 171 113 216 210 144 145 184 231 231 222 220 228 249 216 179 176 169 162 164 166 165 158 153 153 155 159 162 162 162 165 166 166 169 173 172 171 170 170 174 175 172 170 172 169 162 162 165 168 170 171 174 174 174 181 182 173 170 172 173 173 178 182 176 179 187 178 170 167 167 171 173 177 167 157 156 139 126 111 79 66 53 40 25 25
124 112 102 96 93 89 88 88 70 85 119 195 194 186 157 203 182 157 172 202 217 213 216 217 210 233 220 183 182 176 163 165 166 165 161 155 157 160 164 165 163 163 166 166 166 169 172 173 172 170 173 175 174 174 174 174 172 172 175 174 176 175 172 172 171 175 182 174 166 167 175 178 176 179 181 177 183 187 177 177 175 168 170 182 182 168 157 160 156 153 160 137 87 51 61 34 15
126 109 100 90 84 74 74 67 64 91 261 215 184 189 190 205 189 187 187 192 205 196 199 216 211 224 216 186 183 179 168 169 165 163 162 157 159 163 169 172 165 161 163 163 165 169 171 173 173 173 175 175 173 176 178 177 175 178 182 179 177 174 171 172 169 171 174 168 167 170 176 180 177 178 182 181 183 183 181 182 178 171 176 187 185 175 177 163 154 172 197 167 135 68 112 18 352
130 119 118 101 92 70 65 37 30 114 264 279 174 187 202 238 201 197 197 185 190 188 194 206 204 214 213 190 186 179 170 173 167 163 160 156 161 165 172 178 165 156 160 162 163 168 171 173 175 175 176 177 175 176 179 179 177 179 183 182 178 173 174 178 174 173 172 168 170 173 176 179 181 183 185 189 187 183 188 182 176 185 188 189 188 186 189 168 156 185 204 179 145 115 131 344 322
134 132 126 103 111 157 84 80 335 194 271 333 162 170 197 265 218 199 209 198 190 188 197 202 196 204 210 196 188 176 171 174 168 163 158 156 164 169 174 177 161 152 158 162 162 168 171 174 176 176 178 180 178 177 178 177 177 178 182 182 177 172 175 180 180 178 176 173 175 179 180 180 186 189 189 195 190 185 196 184 175 196 202 194 196 193 196 188 182 194 194 174 153 138 167 301 304
173 156 136 114 131 147 114 130 195 225 156 13 110 154 179 279 237 204 212 208 194 186 196 202 197 201 208 204 188 169 169 175 169 161 159 160 166 173 178 174 159 154 159 162 163 167 171 174 177 177 178 181 180 181 178 176 178 180 180 178 173 173 176 179 181 181 180 179 180 186 188 183 186 192 191 196 193 189 203 192 176 195 203 197 197 199 209 212 203 203 197 185 172 183 213 251 298
185 170 140 128 136 142 141 145 177 226 163 72 105 166 190 244 255 247 224 206 186 186 200 188 177 210 237 243 198 167 168 176 174 164 163 164 165 173 181 174 163 160 160 161 164 167 170 174 178 178 180 180 181 185 183 179 181 183 181 176 172 175 179 180 182 185 186 185 186 191 193 189 190 195 193 194 195 197 206 200 185 193 200 196 197 204 213 209 198 198 202 203 191 195 210 223 271
203 153 122 139 160 137 126 155 168 173 149 112 186 220 222 195 247 305 269 180 168 185 191 81 55 345 288 270 231 179 171 175 176 168 165 166 164 170 178 170 166 166 161 160 164 167 170 175 178 180 182 181 181 187 188 185 183 183 182 179 176 177 179 183 184 187 191 189 190 193 190 192 196 195 191 195 201 203 206 201 189 192 203 203 205 211 211 205 209 209 208 212 196 194 221 236 251
287 60 127 162 154 129 112 136 146 139 136 110 272 267 324 298 269 305 155 161 164 184 186 127 138 212 243 250 238 194 177 173 173 169 165 165 165 169 171 164 164 166 161 161 165 168 172 175 178 181 184 183 182 186 190 189 184 182 183 182 181 179 178 182 185 186 188 186 190 192 188 193 200 197 194 196 201 200 197 197 191 192 204 210 212 213 203 199 221 224 220 227 219 220 242 242 242
163 342 253 137 131 128 121 122 130 132 121 155 217 240 232 220 246 163 171 182 179 187 192 172 171 195 225 239 245 215 183 171 167 167 163 165 166 167 167 163 164 167 164 163 166 170 174 176 179 181 183 184 184 186 188 188 185 185 185 182 182 183 181 185 188 186 187 187 188 190 191 196 199 201 199 195 197 196 193 199 198 195 204 210 212 211 198 197 221 227 221 231 236 234 243 245 248
214 244 246 128 133 161 135 131 149 147 105 213 213 252 228 212 201 169 180 194 191 185 189 184 178 190 214 225 245 261 196 173 163 165 163 164 167 166 166 165 166 169 170 168 168 171 174 176 179 181 184 185 185 187 187 186 186 188 188 182 182 185 184 187 191 187 188 191 189 190 195 197 199 201 199 195 199 200 200 203 200 199 208 210 206 211 204 201 217 227 222 229 242 242 247 257 263
273 293 278 143 151 166 157 163 153 136 148 202 145 350 246 224 195 178 182 192 191 183 186 191 186 190 204 210 218 275 226 182 166 165 165 163 166 166 166 168 169 171 172 171 171 171 172 175 178 181 184 185 186 187 188 188 187 188 188 185 184 186 187 191 192 188 190 192 189 192 195 196 199 202 198 198 203 203 204 204 199 201 211 209 204 209 213 209 218 227 221 226 247 255 256 265 269
209 287 288 201 160 151 151 172 168 146 149 166 145 208 258 241 178 176 181 185 189 187 186 191 190 189 193 196 193 234 261 211 174 164 165 165 167 168 168 169 171 172 169 168 171 172 172 175 178 181 183 185 186 187 188 190 189 188 189 189 188 189 190 193 191 191 196 194 189 192 196 196 200 201 199 201 204 205 209 208 203 205 209 209 209 209 211 215 221 229 224 224 242 253 252 256 260
164 177 240 250 203 139 111 67 224 182 149 159 161 165 294 300 184 186 175 172 183 189 186 185 190 187 182 187 188 189 240 233 183 166 165 166 170 171 170 168 169 170 167 167 170 171 173 176 178 182 184 186 188 188 188 189 189 191 192 191 192 192 192 194 193 194 199 198 194 194 198 200 199 199 202 204 204 205 210 210 207 210 210 211 215 212 211 217 225 232 231 227 235 243 244 243 245
Height
787 789 788 790 789 791 793 793 808 808 809 822 818 819 816 798 791 791 794 790 788 785 776 778 781 784 791 799 803 801 802 805 809 820 830 821 815 822 822 823 824 823 824 825 826 827 828 829 830 831 831 832 832 833 833 834 834 835 835 836 837 838 838 838 839 840 841 841 843 844 845 845 845 845 845 847 848 848 848 847 847 848 849 849 848 848 848 849 849 850 852 854 854 854 855 857 859
788 789 789 791 789 794 797 795 813 816 815 826 819 817 807 792 793 796 795 791 790 782 775 778 779 784 787 790 792 797 807 803 797 806 813 813 818 822 822 824 823 823 825 825 827 828 829 830 831 831 832 832 832 833 834 834 835 836 837 837 838 839 839 839 840 841 841 842 843 844 846 846 846 846 846 848 848 849 848 849 849 850 850 850 850 849 849 850 850 851 852 854 855 856 857 858 859
788 790 790 792 791 793 797 799 815 821 823 828 820 812 803 798 796 793 789 785 782 775 776 779 782 786 788 796 797 803 816 805 797 804 810 816 819 821 824 824 824 825 825 827 828 828 830 830 831 832 832 833 833 834 834 835 836 837 838 838 839 839 839 840 841 842 842 843 844 845 846 846 847 847 848 848 849 850 849 850 850 851 852 852 852 851 851 852 852 852 853 854 856 857 858 859 859
789 791 790 792 795 796 802 809 815 820 825 826 821 812 808 803 792 788 783 779 776 774 779 782 789 787 788 804 803 805 815 809 804 806 812 817 817 820 822 824 825 826 827 828 829 830 831 831 832 832 833 833 833 834 835 836 837 838 838 838 839 839 840 841 841 842 843 844 844 845 846 846 846 847 848 849 850 850 851 851 851 852 852 853 854 853 853 854 854 855 854 855 857 858 859 859 859
789 791 790 791 799 802 806 813 815 819 822 822 824 814 806 798 787 787 780 777 776 776 781 784 794 789 787 799 800 807 814 811 809 808 812 816 817 820 822 824 826 827 829 829 830 831 832 832 832 832 833 833 834 835 835 836 837 838 838 839 839 840 841 841 843 843 844 845 845 846 846 846 846 848 849 849 850 851 852 852 852 853 853 854 855 855 855 855 856 856 856 856 858 859 860 860 860
789 791 790 792 798 799 808 818 819 820 814 812 819 812 800 790 785 785 781 779 777 777 780 784 793 793 796 799 797 805 808 808 810 810 812 815 818 820 822 824 826 827 828 829 831 831 832 832 832 833 833 833 834 835 836 836 837 838 838 839 839 840 841 842 843 844 845 846 846 847 847 847 847 849 850 850 850 851 852 852 853 853 854 855 856 856 856 857 858 858 857 857 859 860 861 861 861
790 793 794 798 800 800 814 824 821 819 812 805 808 805 794 785 783 784 785 786 784 782 782 786 788 794 805 802 802 804 802 806 807 811 813 815 819 820 822 824 826 827 828 829 830 831 832 832 832 833 833 834 834 834 835 836 837 838 839 839 840 841 842 843 844 845 845 846 846 847 848 848 848 849 850 851 851 852 853 853 853 853 854 856 857 857 858 858 859 859 859 859 860 861 862 862 862
790 795 797 804 809 808 817 821 817 815 814 806 801 798 788 782 782 784 788 790 791 788 786 789 785 797 808 802 809 808 803 808 807 812 815 816 819 821 823 825 826 827 828 829 830 831 831 832 833 833 834 835 835 835 836 836 838 838 839 840 841 842 842 844 844 845 845 846 847 847 848 849 849 850 850 851 852 852 853 854 854 855 855 856 858 858 859 859 859 860 860 860 861 862 863 863 863
789 795 799 807 813 815 818 818 814 809 811 807 799 793 785 780 781 784 788 788 789 789 790 790 787 800 810 806 813 808 805 811 811 814 816 818 820 821 825 825 826 827 828 829 830 831 831 833 833 834 835 835 836 836 837 837 838 839 840 840 841 842 843 844 844 845 845 846 847 848 848 849 851 851 851 852 853 853 854 855 855 856 856 857 858 859 860 860 861 861 861 861 861 862 863 864 864
792 798 804 811 816 820 820 817 814 809 807 804 798 791 785 781 781 783 787 788 787 790 791 789 792 801 809 813 814 809 808 812 812 816 818 819 821 823 826 826 826 826 828 829 830 831 832 834 834 835 835 836 837 837 838 838 838 839 840 840 841 842 842 843 843 845 845 846 847 848 849 850 851 852 853 853 853 854 855 856 856 857 857 858 859 859 860 861 862 862 862 863 863 863 864 864 864
799 802 804 816 821 824 822 817 814 810 805 800 796 787 783 781 783 784 784 788 787 792 794 792 801 803 807 815 814 811 810 813 814 817 819 820 822 824 825 826 827 827 828 829 831 832 832 834 835 836 836 837 837 838 839 838 839 839 840 840 841 842 842 843 843 844 845 847 847 848 849 851 853 853 853 854 854 855 855 856 857 858 858 859 859 860 861 862 862 862 863 863 864 864 864 865 865
805 807 808 821 823 822 818 815 815 809 806 803 797 786 783 785 787 787 785 790 791 796 796 794 802 801 810 819 814 811 811 814 815 817 820 821 823 824 825 827 828 828 829 830 831 832 833 834 836 836 837 838 838 839 839 839 840 840 840 841 841 842 842 843 844 845 846 847 847 848 850 852 854 854 854 854 855 855 856 857 858 858 859 860 860 860 861 862 863 863 864 864 864 865 865 866 866
803 807 812 821 816 818 815 815 815 811 814 807 798 790 785 791 792 786 785 790 792 798 797 792 795 798 812 819 813 812 813 815 815 818 820 821 823 825 826 827 829 830 831 831 832 833 834 835 836 837 838 838 839 839 839 839 840 840 841 841 842 842 842 843 844 845 846 848 848 849 851 852 854 854 855 855 856 856 857 858 859 859 860 861 861 862 862 863 864 864 865 865 865 866 867 867 867
797 800 808 817 813 815 813 816 816 817 822 806 796 792 786 794 794 783 784 792 794 794 792 788 790 800 812 816 817 816 814 815 816 818 820 822 824 825 827 829 830 831 832 833 833 834 835 836 837 838 838 839 839 839 840 840 840 840 841 841 842 843 843 844 845 847 847 849 850 851 851 852 853 854 855 856 856 857 858 858 859 860 861 862 862 863 864 864 865 865 865 866 866 867 868 868 868
791 796 804 815 817 816 812 814 816 820 821 804 797 797 792 794 791 786 786 792 794 785 785 789 789 801 812 815 819 814 811 813 815 818 820 823 825 826 828 829 831 832 833 834 834 835 835 836 837 838 838 838 839 839 840 840 841 841 841 842 843 844 844 845 846 848 849 850 851 852 852 852 854 854 855 857 857 858 858 859 860 861 862 863 863 864 865 865 865 866 866 867 867 868 869 869 869
784 792 807 817 819 819 813 810 814 820 815 802 800 800 799 791 784 788 782 780 789 782 785 794 790 796 805 808 811 807 808 812 815 818 819 823 825 827 829 830 832 833 834 835 835 836 836 837 837 839 839 839 839 840 841 841 842 842 842 843 844 845 846 847 848 849 850 851 853 853 854 854 854 855 856 857 858 858 858 859 860 862 863 864 864 865 866 866 866 867 867 868 868 869 870 870 870
781 795 813 819 819 818 813 809 813 816 808 803 803 799 799 791 781 781 773 772 785 786 787 792 789 792 798 803 805 804 808 811 814 817 819 824 826 827 829 831 832 833 835 835 836 836 837 838 838 839 839 839 840 840 842 841 842 843 843 844 845 846 847 848 849 850 851 852 854 854 855 855 855 856 857 858 859 859 859 860 861 863 864 865 865 866 866 867 867 868 868 869 869 870 870 870 870
787 804 815 818 818 814 808 806 808 808 806 806 802 791 791 792 784 777 776 781 784 787 790 790 791 793 796 801 804 805 809 811 813 817 820 823 826 827 829 831 833 834 835 836 836 837 837 838 838 839 839 840 841 841 842 842 843 843 844 845 846 847 848 849 849 850 852 853 854 855 855 856 856 857 857 858 859 860 861 861 862 864 865 866 866 866 867 868 868 869 869 869 869 870 870 870 871
792 804 814 816 813 806 800 801 802 803 805 806 801 790 787 788 784 779 785 792 788 793 796 794 797 798 800 802 804 807 808 811 814 816 819 822 825 827 829 832 834 834 835 836 836 837 837 838 839 839 840 841 841 842 843 843 844 845 846 846 847 848 849 850 851 852 853 854 855 855 856 856 857 858 859 859 860 861 861 862 863 865 866 866 867 867 868 868 869 869 870 870 870 870 870 871 871
793 800 813 811 804 800 797 798 798 798 799 804 807 800 792 784 780 782 789 794 791 796 798 798 804 804 803 803 804 808 809 812 814 816 819 821 824 826 828 831 833 834 835 836 836 838 838 839 840 840 841 841 842 843 844 845 846 846 847 847 848 848 849 850 852 853 854 855 855 856 856 857 858 859 860 860 860 862 862 863 864 866 867 867 868 868 868 869 869 870 870 871 871 870 870 871 871
794 798 807 802 797 800 798 797 796 796 796 801 805 805 801 787 780 784 788 797 797 795 794 795 801 803 803 804 805 807 809 812 814 816 818 820 823 825 828 830 833 834 835 836 837 838 839 840 840 840 842 842 843 843 844 845 846 847 847 848 849 849 850 851 852 853 855 855 856 857 857 858 859 860 861 861 862 862 863 864 865 866 867 867 868 869 869 870 870 871 871 871 871 870 871 871 872
794 796 797 794 795 800 798 794 794 795 795 800 800 802 805 790 784 787 788 798 797 790 790 791 794 798 800 802 804 807 809 812 814 816 818 820 823 825 828 830 833 835 835 836 837 838 839 840 840 841 842 843 844 844 845 846 847 847 848 849 849 850 851 852 853 854 855 856 857 857 858 859 860 861 861 862 863 863 864 865 866 867 868 868 869 869 870 870 871 871 871 871 871 871 871 871 872
794 796 792 791 793 797 797 793 794 794 795 801 796 796 802 795 789 787 786 791 787 782 786 789 792 795 799 801 804 808 809 811 813 815 817 819 822 824 828 830 833 835 836 836 837 839 839 839 840 841 842 843 844 845 846 847 848 848 849 850 850 851 851 852 854 855 856 856 857 858 859 860 861 861 862 863 864 864 865 866 867 868 868 869 869 870 870 871 871 871 871 871 871 871 870 871 871
790 796 795 794 794 794 794 794 795 794 794 796 792 795 801 798 792 787 785 785 780 781 784 788 793 795 799 802 804 807 809 810 812 815 817 818 821 824 827 830 833 835 836 837 838 839 839 839 840 841 842 843 844 846 847 848 849 849 849 851 851 852 852 853 854 855 856 857 858 859 860 861 862 862 863 864 864 865 866 867 868 869 869 870 869 870 871 871 871 871 871 871 871 871 870 871 871
790 796 796 793 794 792 791 793 794 794 793 792 793 797 797 791 787 788 787 783 779 782 785 789 794 797 801 803 805 807 808 810 811 813 816 818 821 824 827 830 833 835 836 836 837 838 839 839 840 841 842 843 845 846 847 848 849 850 850 851 852 853 853 853 854 856 857 858 859 860 861 862 863 863 864 864 865 866 867 868 869 869 870 870 870 871 871 871 872 871 871 871 871 871 871 872 873
790 792 794 793 796 793 792 794 794 794 793 792 795 797 792 783 785 791 786 780 781 783 788 792 795 800 802 803 805 806 807 809 810 812 815 818 820 823 827 830 832 834 836 837 837 837 838 839 840 841 842 843 845 847 848 849 850 851 851 852 852 853 854 854 855 857 858 859 860 861 862 863 864 864 865 865 866 867 868 869 869 870 870 871 871 871 872 872 872 872 871 871 871 871 872 872 873
784 788 792 794 798 793 793 795 794 795 793 793 795 795 790 781 788 798 787 778 782 786 792 794 796 802 802 803 804 805 807 808 809 812 814 817 820 823 827 829 832 834 836 838 837 836 836 838 840 841 842 843 845 848 849 849 850 851 852 852 853 853 854 855 857 858 859 860 861 862 863 864 865 865 865 866 866 867 868 869 869 870 871 871 872 871 872 872 872 872 871 871 871 871 871 871 872
782 786 794 797 797 795 795 796 795 795 794 793 793 794 790 785 792 796 785 779 783 789 796 796 798 802 801 803 804 804 806 807 809 811 813 817 819 822 825 828 832 834 836 838 838 837 835 836 841 842 842 844 846 848 849 850 851 851 852 853 853 854 855 856 858 859 860 861 862 862 863 864 865 866 866 867 867 868 868 869 870 870 871 871 871 871 872 872 872 872 871 871 871 870 871 871 872
782 785 798 802 797 799 800 798 797 796 797 794 794 803 802 796 796 790 781 781 785 792 797 798 799 801 801 803 803 804 805 806 808 811 813 816 818 821 824 828 831 834 836 838 838 838 835 835 839 842 843 845 846 848 850 851 851 852 852 853 854 854 855 857 859 860 861 861 862 863 864 865 865 866 867 867 868 868 869 870 870 870 871 871 871 872 872 872 872 872 872 871 871 871 871 871 872
785 787 797 803 804 807 802 800 798 797 799 793 798 818 817 802 795 788 781 782 788 796 799 799 800 800 802 803 803 805 805 806 809 810 814 815 818 821 824 828 830 833 835 838 839 839 838 836 838 841 844 846 846 848 850 851 852 852 853 854 854 855 856 858 859 861 861 862 863 864 865 865 866 867 867 868 868 869 869 870 871 871 871 871 872 872 872 873 872 872 872 871 871 871 871 871 871
790 793 799 804 811 814 805 801 802 802 801 793 802 823 820 803 794 787 782 783 790 798 800 799 801 802 803 803 804 806 805 807 809 811 814 815 818 820 824 828 830 832 835 837 839 840 841 839 839 841 843 845 847 849 850 851 852 853 854 855 855 856 856 858 860 861 862 863 864 864 865 866 866 867 868 869 869 870 870 870 871 871 872 872 872 873 873 873 873 872 872 872 871 871 870 870 871
795 801 814 812 812 816 808 802 804 807 803 797 806 821 819 808 801 791 782 784 791 798 800 799 802 803 804 804 804 807 806 806 809 811 814 815 817 820 824 828 830 832 834 837 839 840 842 842 841 842 843 845 847 849 850 851 853 853 855 855 856 857 857 859 860 862 863 863 864 865 866 866 867 868 868 869 869 870 871 871 871 872 872 873 873 873 873 873 873 873 872 872 871 871 870 870 870
799 798 816 817 813 819 814 806 804 806 808 805 808 818 819 809 803 796 785 786 792 797 800 800 802 804 804 805 805 807 807 807 809 811 813 814 817 821 823 826 829 832 834 836 838 840 841 842 843 843 844 846 847 849 851 852 853 854 855 856 857 857 858 859 860 862 863 864 864 865 866 867 867 868 868 869 870 870 871 871 872 873 873 873 873 873 873 873 873 873 872 872 871 871 870 870 870
808 799 807 811 811 819 818 812 806 805 811 814 811 813 815 807 801 797 788 786 793 797 800 800 802 804 804 805 806 808 808 809 810 810 812 814 816 821 823 826 829 831 834 836 838 839 841 842 843 844 845 847 848 850 851 852 854 855 856 856 858 858 859 860 860 862 863 864 865 865 866 867 868 868 869 870 870 871 871 872 873 873 873 873 873 873 873 873 873 873 872 872 872 871 871 871 870
810 807 806 810 811 815 816 813 808 807 813 816 815 816 814 808 802 798 790 787 793 797 798 799 801 804 804 805 807 808 808 809 809 809 811 813 816 821 823 826 829 831 833 835 837 839 840 842 843 845 846 847 848 850 851 853 854 855 856 857 858 859 860 860 861 862 863 864 865 866 867 867 868 868 869 870 870 871 871 872 873 873 874 874 873 873 873 873 873 873 872 872 871 871 870 870 870
796 799 800 809 814 814 811 807 804 805 813 816 815 818 816 811 806 800 792 789 793 796 796 799 801 803 804 806 807 808 809 808 807 808 811 813 817 820 823 826 828 831 833 835 837 838 840 841 843 845 846 847 848 850 851 853 854 855 856 857 858 859 860 861 862 862 863 864 865 866 867 868 868 869 869 870 870 871 871 872 873 873 874 873 873 874 873 873 873 873 872 872 871 871 871 871 870
786 793 797 802 811 815 809 806 805 803 813 817 813 816 816 811 807 800 793 792 796 798 799 800 802 804 805 806 807 808 808 806 806 808 811 814 817 820 823 826 828 831 833 835 837 838 839 841 843 845 846 847 848 849 851 852 853 855 856 856 857 858 860 861 862 863 863 864 865 866 867 868 868 869 870 870 871 871 872 872 873 873 874 874 874 874 874 874 873 873 873 872 872 871 871 870 870
784 791 798 803 810 814 809 807 808 804 812 817 812 816 818 813 809 802 795 796 799 799 800 801 802 803 804 805 807 807 806 804 805 808 810 814 817 820 823 825 827 830 832 834 836 838 840 841 843 844 846 847 848 849 851 852 853 855 856 856 857 859 860 861 862 863 864 864 865 866 867 868 868 869 870 871 871 872 872 873 873 873 874 874 874 874 874 874 873 873 873 872 872 872 871 870 870
783 790 798 808 811 813 814 810 808 808 813 819 816 818 821 815 809 805 801 801 799 797 798 799 800 802 804 804 806 807 806 806 806 808 810 813 817 819 822 825 827 830 832 834 836 838 840 841 842 844 846 847 848 850 850 852 853 854 856 856 857 859 860 861 862 863 864 864 865 866 867 868 869 869 870 871 872 872 873 873 873 874 874 874 874 874 874 874 874 873 873 873 872 872 871 870 871
783 789 797 809 808 810 820 818 813 811 811 816 820 822 821 816 811 807 805 804 801 799 798 797 796 799 802 801 803 805 807 808 808 808 809 812 816 819 822 825 828 830 832 834 836 838 839 841 842 843 845 847 848 849 850 852 853 854 855 856 857 859 860 861 862 863 864 864 866 867 867 868 869 869 870 871 872 872 873 873 874 874 874 874 874 874 874 873 874 874 873 873 872 872 872 871 871
780 784 791 802 802 800 809 817 815 813 814 815 821 833 829 817 817 814 807 805 803 801 800 799 797 796 798 799 800 802 804 807 808 808 809 811 814 818 821 824 827 829 831 833 835 837 838 840 842 843 845 846 848 849 850 851 852 853 854 856 857 858 860 861 862 863 863 864 865 866 867 868 869 869 870 871 872 872 873 873 874 874 874 874 874 874 874 874 874 874 873 873 873 872 872 872 872
780 778 780 788 794 796 803 813 815 821 828 819 819 842 841 821 819 820 812 809 808 805 804 803 800 797 798 800 801 801 803 804 805 806 808 810 813 817 821 823 826 829 831 833 834 836 838 839 841 843 844 846 847 848 850 851 852 853 853 855 856 857 859 860 861 862 863 864 865 866 867 868 869 870 870 871 871 872 873 873 874 874 874 874 875 875 875 875 874 874 874 874 873 873 872 872 872
782 770 768 777 786 796 806 810 814 825 831 818 815 835 842 829 823 819 815 814 812 808 807 805 802 800 799 800 800 801 802 803 804 805 806 809 812 815 819 822 825 828 830 832 834 835 837 839 840 842 844 845 846 848 849 850 851 852 853 854 855 856 858 859 860 861 862 863 864 866 867 868 869 869 870 871 871 872 872 873 874 874 874 874 875 875 875 875 875 875 875 874 874 873 873 873 872
782 763 763 777 785 796 805 808 815 821 820 820 819 824 836 837 825 816 815 818 816 812 810 807 804 803 800 799 799 800 801 802 804 805 806 807 811 814 817 820 823 826 829 831 833 834 836 837 839 841 843 844 845 847 848 850 851 852 853 854 855 856 857 859 860 861 862 863 864 865 866 867 868 869 870 870 871 872 872 872 873 873 874 875 875 875 875 875 875 875 875 875 874 874 873 873 873
779 764 766 777 784 794 800 807 818 818 819 832 829 821 835 840 824 814 816 820 821 816 812 808 805 804 801 798 798 798 799 800 802 804 805 807 809 812 815 818 821 824 828 830 831 833 835 836 838 840 842 843 845 846 848 849 850 851 853 854 855 856 857 858 860 861 862 863 864 865 866 867 868 868 869 870 870 871 871 872 873 873 874 875 875 875 875 875 875 875 875 875 875 874 874 874 873
770 764 772 780 788 797 802 811 819 821 827 836 830 822 834 841 828 821 823 823 820 815 810 807 804 803 801 798 798 798 798 798 800 802 803 806 808 811 814 817 820 823 826 828 830 832 834 835 837 839 840 842 844 845 847 848 850 851 852 853 854 856 857 858 859 860 861 862 863 864 865 866 867 868 869 870 870 871 871 872 872 873 874 874 875 875 875 875 875 875 876 875 875 875 875 874 874
764 767 778 790 798 802 808 814 818 831 838 829 822 820 828 839 831 821 821 817 812 811 810 808 804 802 800 797 797 798 798 798 799 800 802 805 807 810 813 815 818 821 824 827 829 831 833 834 836 838 839 841 843 844 846 847 849 850 851 852 853 854 855 857 858 859 860 862 863 864 865 866 867 868 868 869 870 870 871 871 872 873 873 874 875 875 875 875 875 875 876 875 875 875 875 875 875
763 772 781 799 812 812 819 826 826 842 843 823 816 817 825 838 829 814 811 806 803 806 808 807 805 802 798 795 795 795 796 797 798 800 801 803 806 809 812 814 816 819 822 825 828 830 832 833 835 837 839 840 842 843 845 846 848 849 850 852 853 854 855 856 857 858 860 861 862 863 864 866 866 867 868 869 870 870 871 871 871 872 873 873 874 875 875 875 875 875 876 875 875 875 876 876 876
767 773 781 804 825 827 835 842 839 844 841 824 816 819 829 832 817 806 805 802 800 799 799 801 801 800 797 794 793 793 794 795 796 799 800 802 805 807 809 812 814 817 820 823 826 829 831 833 834 836 838 839 841 842 843 845 846 848 849 851 852 853 854 855 857 858 859 860 861 862 863 865 866 866 867 868 869 870 870 871 871 872 872 873 873 874 875 875 875 876 876 876 876 876 876 876 876
773 774 780 800 821 835 846 848 842 842 838 827 817 821 832 826 807 799 797 795 795 794 793 795 795 796 796 792 791 792 793 794 795 797 798 800 803 805 808 810 812 815 818 821 824 827 830 832 834 835 837 838 840 841 842 844 845 847 849 850 851 852 853 855 856 857 859 860 861 862 863 864 865 865 866 867 868 869 870 870 871 872 872 873 873 873 874 874 875 875 876 876 876 876 877 877 877
763 758 765 783 798 816 835 842 843 842 837 831 827 826 830 823 807 795 790 788 791 792 792 793 795 795 794 793 792 792 793 793 793 795 797 798 801 804 806 808 811 814 817 820 823 826 828 831 833 834 836 838 839 841 842 843 845 846 848 849 850 852 853 854 855 856 858 859 860 861 862 863 864 864 865 866 867 868 869 870 871 871 872 872 873 873 874 874 875 875 875 876 876 876 876 877 877
751 743 760 777 775 784 809 822 824 828 833 835 831 824 814 808 800 790 788 789 790 793 794 796 802 801 798 799 796 792 792 792 793 794 796 797 799 802 805 807 809 812 815 818 820 823 826 829 831 833 834 836 838 840 841 843 844 845 847 848 850 851 852 854 855 856 857 858 859 860 861 863 863 864 865 866 867 867 868 869 870 870 871 872 872 872 873 874 874 875 875 875 876 876 876 877 877
751 750 763 763 753 765 798 815 809 814 833 835 826 821 813 806 801 792 790 793 793 795 796 798 803 804 803 802 797 793 791 790 791 792 793 795 797 800 802 805 808 810 813 816 818 821 824 827 830 832 834 836 837 839 840 842 844 845 846 847 849 850 852 853 854 855 856 857 859 860 861 862 863 864 864 865 866 867 867 868 869 870 870 871 872 872 873 873 874 874 875 875 876 876 876 876 876
753 762 757 749 753 761 780 810 821 823 837 835 824 824 822 818 813 800 795 798 797 796 796 797 801 802 803 800 795 793 789 787 789 789 791 793 795 798 801 803 806 808 811 814 817 820 822 825 828 830 833 834 836 838 839 841 843 844 845 846 848 850 851 852 853 855 856 857 858 859 860 861 862 863 864 865 866 866 867 868 868 869 870 870 871 871 872 873 873 874 874 875 876 876 876 876 876
740 748 741 751 778 781 777 799 818 827 838 836 825 822 818 815 811 803 801 800 797 796 795 796 798 800 801 798 794 792 788 786 788 788 789 791 793 796 799 802 804 807 810 812 816 819 821 824 826 829 831 833 835 837 838 840 842 843 845 846 847 849 850 852 853 854 855 856 857 858 859 861 861 862 863 864 865 865 866 867 868 869 869 870 870 871 872 872 873 874 874 874 875 876 876 876 876
734 738 738 747 766 776 777 781 790 811 835 835 827 827 817 801 793 794 796 794 792 795 795 793 794 795 796 795 793 791 789 787 786 787 788 789 791 794 797 800 803 805 809 811 814 817 819 823 825 828 831 832 834 836 837 839 841 842 844 845 847 848 849 851 852 853 854 855 856 857 858 859 860 861 863 863 864 865 865 866 867 868 869 869 870 871 871 872 873 873 874 874 875 875 875 875 876
747 751 755 754 753 757 767 771 769 788 820 830 830 831 812 786 777 781 785 786 787 789 790 791 790 789 791 792 790 789 790 788 785 785 787 787 789 793 795 799 801 805 808 810 813 816 819 822 824 826 829 831 833 835 836 838 839 841 843 844 846 847 849 850 851 852 853 854 855 856 858 859 860 861 862 863 863 864 865 866 866 867 868 869 869 870 871 871 872 873 873 874 874 874 875 875 875
746 753 755 754 755 759 775 786 772 766 790 809 816 822 807 780 770 772 774 779 781 782 784 787 787 786 788 790 787 787 789 788 783 782 784 786 788 791 794 797 800 803 807 810 812 815 818 821 823 826 828 830 832 833 834 836 838 840 842 843 845 846 847 849 850 852 853 853 855 856 857 858 859 860 861 862 863 863 864 865 866 866 867 868 868 869 870 871 871 872 872 873 874 874 874 874 875